User: anonymous
Location: Unspecified
(0.0000°N, 0.0000°E)
Time: 14:23:39
(UTC+02:00)
Language:

Iridium 33 - Orbit

View from above orbital plane
View from above orbital plane
View from above satellite
View from above satellite

Ground track
Ground track

The orbit data is extracted from the following two-line orbital elements,

1 24946U 97051C   14108.39254583  .00000405  00000-0  14063-3 0  8759
2 24946 086.3900 050.3388 0009397 058.9399 086.7190 14.33114601868479
Epoch (UTC): 18 April 2014 09:25:15
Eccentricity: 0.0009397
inclination: 86.3900°
perigee height: 774 km
apogee height: 788 km
right ascension of ascending node: 50.3388°
argument of perigee: 58.9399°
revolutions per day: 14.33114601
mean anomaly at epoch: 86.7190°
orbit number at epoch: 86847

The dashed part of the orbit path shows where the satellite is in the earth's shadow,  

DLR